sat.trackr.live / text

‹ back to catalog

STARLINK-4395

NORAD 53199 · 2022-084L

PAYLOAD ACTIVE UNKNOWN

§ Identity

Operator
Country
US
Launch date
2022-07-22
Launch site
AFWTR
Launch vehicle
Mass (kg)
RCS (m²)

Purposes: comms

External: N2YO · Heavens-Above · Gunter

§ Orbital elements

Epoch: 2026-05-25T03:40:46.544736Z

Period
95.64 min
Inclination
97.4452°
Eccentricity
0.0001508
Mean motion
15.05717382 rev/d
Perigee alt
548.3 km
Apogee alt
550.3 km
Semi-major
6,927.4 km
B*
-9.4806e-4
RAAN
206.2116°
Arg perigee
117.9147°
Mean anomaly
242.2233°
Rev number
21,088

§ Raw data

STARLINK-43951 53199U 22084L   26145.15331649 -.00013736  00000+0 -94806-3 0  99942 53199  97.4452 206.2116 0001508 117.9147 242.2233 15.05717382210888

JSON: /api/v1/satellites/53199 · /tle

For live sub-satellite position, see the globe view (requires WebGL).

§ Visibility from observer

Set your observer location to see the next 7 days of passes ≥ 10°. The values pass through the URL so the page stays shareable.

No JS? Fill the form by hand. The geolocation button needs JavaScript.